Location: Augustenthal
(51.7167°N, 10.2833°E)
Time: 22:18:21
(UTC+00:00)

Nimbus 7 Rocket - Pass Details

Date: 18 May 2021
Orbit: 923 x 964 km, 99.4° (Epoch: 24 June)

Event Time Altitude Azimuth Distance (km) Brightness Sun altitude
Rises 23:20:57 0° 15° (NNE) 3,588 9.0 -18.5°
Reaches altitude 10° 23:23:23 10° 15° (NNE) 2,645 8.0 -18.5°
Maximum altitude 23:29:18 81° 289° (WNW) 952 4.4 -18.4°
Enters shadow 23:32:33 29° 205° (SSW) 1,664 5.2 -18.4°
